Location: Arleux
(50.3632°N, 2.8721°E)
Time: 07:58:02
(UTC+00:00)

ALOS - Pass Details

Date: 15 December 2019
Orbit: 684 x 685 km, 97.8° (Epoch: 20 January)

Event Time Altitude Azimuth Distance (km) Brightness Sun altitude
Rises 06:05:52 0° 8° (N) 3,065 5.5 -14.3°
Reaches altitude 10° 06:08:14 10° 0° (N) 2,144 4.6 -13.9°
Maximum altitude 06:12:33 38° 293° (WNW) 1,044 2.7 -13.3°
Drops below altitude 10° 06:16:51 10° 226° (SW) 2,129 4.6 -12.6°
Sets 06:19:11 0° 218° (SW) 3,040 5.4 -12.3°
